Weather History for KSEG - February, 2014

Change the Weather History Date:

Monday, February 24, 2014

  Actual Average (KIPT) Record (KIPT)
Temperature  
Mean Temperature 30 °F 32 °F  
Max Temperature 37 °F 41 °F 71 °F (1985)
Min Temperature 24 °F 23 °F -9 °F (2015)
Degree Days  
Heating Degree Days 34 33  
Month to date heating degree days 857  
Since 1 July heating degree days 4336  
Cooling Degree Days 0 0  
Month to date cooling degree days 0  
Year to date cooling degree days 0  
Moisture  
Dew Point 11 °F    
Average Humidity 45    
Maximum Humidity 55    
Minimum Humidity 38    
Precipitation  
Precipitation 0.00 in 0.09 in 1.76 in (1975)
Month to date precipitation 2.00  
Year to date precipitation 4.70  
Snow  
Snow 0.00 in 0.30 in 4.40 in (2005)
Month to date snowfall 7.6  
Since 1 July snowfall 26.8  
Snow Depth -    
Sea Level Pressure  
Sea Level Pressure 30.02 in    
Wind  
Wind Speed 9 mph (WNW)    
Max Wind Speed 17 mph    
Max Gust Speed 30 mph    
Visibility 10 miles    
Events      
T = Trace of Precipitation, MM = Missing Value Source: NWS Daily Summary

Daily Weather History Graph

Daily Weather History Graph

Search for Another Location

Airport or City:

Trip Planner

Search our weather history database for the weather conditions in past years. The results will help you decide how hot, cold, wet, or windy it might be!

Date:

Astronomy

Feb. 24, 2014 Rise Set
Actual Time 6:49 AM EST 5:52 PM EST
Civil Twilight 6:21 AM EST 6:20 PM EST
Nautical Twilight 5:49 AM EST 6:52 PM EST
Astronomical Twilight 5:17 AM EST 7:24 PM EST
Moon 2:46 AM EST (2/24) 12:50 PM EST (2/24)
Length of Visible Light 11h 59m
Length of Day
11h 03m
Waning Crescent, 28% of the Moon is Illuminated
Feb 24
Waning Crescent
Mar 1
New
Mar 8
First Quarter
Mar 16
Full
Mar 23
Last Quarter

Hourly Weather History & Observations

Time (EST) Temp. Windchill Dew Point Humidity Pressure Visibility Wind Dir Wind Speed Gust Speed Precip Events Conditions
12:53 AM 37.9 °F 34.4 °F 21.0 °F 51% 29.91 in 10.0 mi WSW 4.6 mph - N/A   Clear
1:53 AM 36.0 °F 31.1 °F 19.0 °F 50% 29.91 in 10.0 mi Variable 5.8 mph - N/A   Clear
2:53 AM 34.0 °F 28.8 °F 17.1 °F 50% 29.92 in 10.0 mi West 5.8 mph - N/A   Clear
3:53 AM 30.9 °F 27.5 °F 16.0 °F 54% 29.94 in 10.0 mi SSW 3.5 mph - N/A   Clear
4:53 AM 30.0 °F 21.7 °F 12.0 °F 47% 29.96 in 10.0 mi NW 9.2 mph - N/A   Clear
5:53 AM 28.9 °F 21.1 °F 10.9 °F 47% 29.97 in 10.0 mi WNW 8.1 mph - N/A   Clear
6:53 AM 28.0 °F 20.8 °F 10.9 °F 49% 29.98 in 10.0 mi WNW 6.9 mph - N/A   Clear
7:53 AM 27.0 °F 15.6 °F 9.0 °F 47% 30.00 in 10.0 mi WNW 13.8 mph - N/A   Partly Cloudy
8:53 AM 28.0 °F 21.7 °F 10.0 °F 47% 30.01 in 10.0 mi Variable 5.8 mph - N/A   Scattered Clouds
9:53 AM 28.9 °F 20.4 °F 9.0 °F 43% 30.01 in 10.0 mi West 9.2 mph - N/A   Mostly Cloudy
10:53 AM 30.0 °F 19.1 °F 9.0 °F 41% 30.02 in 10.0 mi WNW 15.0 mph 26.5 mph N/A   Mostly Cloudy
11:53 AM 30.9 °F 20.2 °F 10.0 °F 42% 30.01 in 10.0 mi West 15.0 mph 26.5 mph N/A   Mostly Cloudy
12:53 PM 30.9 °F 19.4 °F 9.0 °F 40% 30.00 in 10.0 mi WNW 17.3 mph 23.0 mph N/A   Mostly Cloudy
1:53 PM 33.1 °F 23.0 °F 10.0 °F 38% 29.99 in 10.0 mi West 15.0 mph 21.9 mph N/A   Mostly Cloudy
2:53 PM 32.0 °F 21.2 °F 10.0 °F 40% 30.01 in 10.0 mi WNW 16.1 mph 25.3 mph N/A   Overcast
3:53 PM 32.0 °F 21.6 °F 9.0 °F 38% 30.03 in 10.0 mi WNW 15.0 mph 29.9 mph N/A   Overcast
4:53 PM 30.9 °F 19.8 °F 8.1 °F 38% 30.05 in 10.0 mi West 16.1 mph 23.0 mph N/A   Scattered Clouds
5:53 PM 30.0 °F 20.5 °F 7.0 °F 38% 30.07 in 10.0 mi West 11.5 mph 24.2 mph N/A   Mostly Cloudy
6:53 PM 28.9 °F 19.8 °F 8.1 °F 41% 30.10 in 10.0 mi WNW 10.4 mph 19.6 mph N/A   Mostly Cloudy
7:53 PM 28.9 °F 18.6 °F 8.1 °F 41% 30.11 in 10.0 mi WNW 12.7 mph 25.3 mph N/A   Overcast
8:53 PM 28.0 °F 19.3 °F 8.1 °F 43% 30.13 in 10.0 mi WNW 9.2 mph 21.9 mph N/A   Scattered Clouds
9:53 PM 27.0 °F 17.3 °F 8.1 °F 45% 30.14 in 10.0 mi WNW 10.4 mph - N/A   Partly Cloudy
10:53 PM 24.1 °F - 9.0 °F 53% 30.13 in 10.0 mi Calm Calm - N/A   Partly Cloudy
11:53 PM 24.1 °F 19.7 °F 10.0 °F 55% 30.13 in 10.0 mi West 3.5 mph - N/A   Partly Cloudy